Location: Aalen
(48.8330°N, 10.1000°E)
Time: 03:46:20
(UTC+02:00)

Transit 2A - Pass Details

Date: 29 July 2021
Orbit: 594 x 964 km, 66.7° (Epoch: 27 September)

Event Time Altitude Azimuth Distance (km) Brightness Sun altitude
Rises 15:53:52 0° 326° (NW) 3,164 9.2 47.6°
Reaches altitude 10° 15:56:12 10° 332° (NNW) 2,295 8.6 47.3°
Maximum altitude 16:01:21 50° 48° (NE) 1,038 6.9 46.6°
Drops below altitude 10° 16:07:01 10° 123° (ESE) 2,526 8.6 45.8°
Sets 16:09:42 0° 129° (SE) 3,512 9.2 45.4°
